GW7244 Weather Reports


time (UTC)temp
C
wind
direction
speed
KPH
gust
KPH
rain 1hr
cm
rain 24hr
cm
rain mn
cm
humidity
%
barometer
mb
20260503181530 22 13 3.2 9.7 0.00 0.00 0.00 51 1009.9
20260503181026 22 339 4.8 6.4 0.00 0.00 0.00 52 1010.2
20260503180523 22 341 6.4 9.7 0.00 0.00 0.00 51 1010.2
20260503180020 22 34 1.6 9.7 0.00 0.00 0.00 52 1010.5
20260503175518 21 18 4.8 6.4 0.00 0.00 0.00 52 1010.1
20260503175015 21 7 3.2 9.7 0.00 0.00 0.00 54 1010.2
20260503174512 21 350 3.2 6.4 0.00 0.00 0.00 54 1010.3
20260503174008 20 327 4.8 4.8 0.00 0.00 0.00 56 1010.4
20260503173503 20 5 3.2 11.3 0.00 0.00 0.00 55 1010.4
20260503173000 20 347 3.2 6.4 0.00 0.00 0.00 57 1010.6
20260503172458 20 342 4.8 4.8 0.00 0.00 0.00 56 1010.5
20260503171954 20 327 4.8 6.4 0.00 0.00 0.00 58 1010.4
20260503171451 20 10 3.2 4.8 0.00 0.00 0.00 56 1010.5
20260503170948 19 11 3.2 4.8 0.00 0.00 0.00 58 1010.5
20260503170444 19 350 3.2 6.4 0.00 0.00 0.00 56 1010.5
20260503150837 12 68 0.0 1.6 0.00 0.00 0.00 90 1011.1
20260503150333 12 68 0.0 1.6 0.00 0.00 0.00 90 1011.2
20260503140257 10 68 0.0 0.0 0.00 0.00 0.00 92 1011.0
20260503131227 9 68 0.0 0.0 0.00 0.00 0.00 93 1010.9
20260503130724 9 68 0.0 0.0 0.00 0.00 0.00 93 1010.6
20260503130221 9 68 0.0 1.6 0.00 0.00 0.00 92 1010.5
20260503120147 10 68 0.0 0.0 0.00 0.00 0.00 92 1010.6
20260503110615 10 68 0.0 1.6 0.00 0.00 0.00 92 1010.8
20260503110112 10 68 0.0 0.0 0.00 0.00 0.00 92 1010.9
20260503090502 12 68 1.6 1.6 0.00 0.00 0.00 90 1011.2
20260503081428 12 68 0.0 1.6 0.00 0.00 0.00 89 1011.4
20260503080925 12 68 1.6 1.6 0.00 0.00 0.00 89 1011.2
20260503080422 12 68 1.6 1.6 0.00 0.00 0.00 89 1011.1
20260503072858 12 68 0.0 0.0 0.00 0.00 0.00 89 1011.2
20260503072355 12 68 1.6 1.6 0.00 0.00 0.00 89 1011.5
20260503071851 12 68 1.6 1.6 0.00 0.00 0.00 89 1011.4
20260503071349 12 67 0.0 0.0 0.00 0.00 0.00 88 1011.4
20260503070845 13 69 0.0 0.0 0.00 0.00 0.00 88 1011.4
20260503070343 13 69 0.0 1.6 0.00 0.00 0.00 88 1011.3
20260503060314 14 77 0.0 1.6 0.00 0.05 0.05 84 1011.3
20260503054801 15 77 1.6 3.2 0.00 0.05 0.05 83 1011.5
20260503054258 15 77 1.6 1.6 0.00 0.05 0.05 83 1011.4
20260503053756 15 77 1.6 1.6 0.00 0.05 0.05 82 1011.1
20260503053254 15 77 1.6 1.6 0.00 0.05 0.05 82 1011.0
20260503052750 15 77 1.6 1.6 0.00 0.05 0.05 82 1011.0
20260503052247 15 77 0.0 1.6 0.00 0.05 0.05 83 1011.1
20260503051742 15 77 0.0 0.0 0.00 0.05 0.05 82 1011.2
20260503051240 15 77 0.0 0.0 0.00 0.05 0.05 81 1011.0
20260503050736 15 77 1.6 1.6 0.00 0.05 0.05 82 1011.1
20260503050233 15 77 0.0 0.0 0.00 0.05 0.05 81 1011.1
20260503045730 15 77 0.0 1.6 0.00 0.05 0.05 81 1011.3
20260503045228 15 77 0.0 0.0 0.00 0.05 0.05 80 1011.3
20260503044724 15 77 0.0 1.6 0.00 0.05 0.05 79 1011.5
20260503044222 16 77 0.0 0.0 0.00 0.05 0.05 79 1011.5
20260503043718 16 77 1.6 1.6 0.00 0.05 0.05 79 1011.6
20260503043216 16 76 0.0 1.6 0.00 0.05 0.05 78 1011.5
20260503042711 16 76 1.6 1.6 0.00 0.05 0.05 78 1011.7
20260503042208 16 76 1.6 1.6 0.00 0.05 0.05 77 1011.7
20260503041704 16 77 1.6 1.6 0.00 0.05 0.05 77 1011.4
20260503041202 16 76 0.0 1.6 0.00 0.05 0.05 76 1011.5
20260503040659 16 76 1.6 1.6 0.00 0.05 0.05 75 1011.6
20260503040157 16 76 0.0 0.0 0.00 0.05 0.05 75 1011.3
20260503035653 16 76 0.0 1.6 0.00 0.05 0.05 74 1011.1
20260503035151 17 77 0.0 1.6 0.00 0.05 0.05 73 1011.4
20260503034648 17 77 0.0 1.6 0.00 0.05 0.05 73 1011.4
20260503034145 17 77 0.0 1.6 0.00 0.05 0.05 73 1011.3
20260503033642 17 77 0.0 3.2 0.00 0.05 0.05 72 1011.2
20260503033140 17 76 1.6 1.6 0.00 0.05 0.05 70 1011.3
20260503032638 17 76 0.0 1.6 0.00 0.05 0.05 70 1011.3
20260503032137 17 76 0.0 0.0 0.00 0.05 0.05 70 1011.0
20260503031634 18 76 0.0 1.6 0.00 0.05 0.05 69 1011.3
20260503031131 18 76 1.6 1.6 0.00 0.05 0.05 67 1011.1
20260503030627 18 76 1.6 1.6 0.00 0.05 0.05 66 1011.2
20260503030124 18 76 1.6 1.6 0.00 0.05 0.05 66 1011.2
20260503025620 18 79 3.2 3.2 0.00 0.05 0.05 65 1011.0
20260503025119 18 62 1.6 4.8 0.00 0.05 0.05 66 1011.1
20260503024614 18 107 1.6 6.4 0.00 0.05 0.05 66 1010.9
20260503024111 18 193 6.4 9.7 0.00 0.05 0.05 66 1010.9
20260503023609 18 212 6.4 11.3 0.00 0.05 0.05 65 1010.9
20260503023106 19 198 9.7 11.3 0.00 0.05 0.05 64 1011.0
20260503022601 20 148 4.8 9.7 0.00 0.05 0.05 62 1011.0
20260503022056 20 170 9.7 12.9 0.00 0.05 0.05 60 1010.8
20260503021554 20 79 1.6 12.9 0.00 0.05 0.05 59 1010.6
20260503021050 20 159 4.8 9.7 0.00 0.05 0.05 58 1010.7
20260503020548 20 150 4.8 9.7 0.00 0.05 0.05 58 1010.6
20260503020044 21 120 3.2 3.2 0.00 0.05 0.05 60 1010.3
20260503015541 21 110 3.2 3.2 0.00 0.05 0.05 58 1010.3
20260503015039 20 109 1.6 1.6 0.00 0.05 0.05 59 1010.2
20260503014534 21 106 1.6 3.2 0.00 0.05 0.05 62 1010.2
20260503014032 21 106 1.6 1.6 0.00 0.05 0.05 58 1009.9
20260503013529 21 107 1.6 1.6 0.00 0.05 0.05 61 1010.0
20260503013027 21 107 0.0 3.2 0.00 0.05 0.05 63 1010.0
20260503012524 21 104 1.6 3.2 0.00 0.05 0.05 59 1010.0
20260503012020 21 104 1.6 1.6 0.00 0.05 0.05 62 1010.0
20260503011517 21 104 0.0 3.2 0.00 0.05 0.05 60 1010.0
20260503011014 21 104 1.6 1.6 0.00 0.05 0.05 59 1010.1
20260503010510 21 104 1.6 1.6 0.00 0.05 0.05 59 1010.1
20260503010009 22 104 0.0 1.6 0.00 0.05 0.05 53 1010.1
20260503005505 22 104 1.6 1.6 0.00 0.05 0.05 55 1010.0
20260503005002 22 105 1.6 1.6 0.00 0.05 0.05 54 1010.0
20260503004458 22 93 1.6 1.6 0.00 0.05 0.05 54 1010.0
20260503003956 22 36 0.0 1.6 0.00 0.05 0.05 51 1010.2
20260503003453 22 37 0.0 3.2 0.00 0.05 0.05 52 1010.1
20260503002950 22 85 1.6 1.6 0.00 0.05 0.05 53 1010.2
20260503002447 22 30 0.0 1.6 0.00 0.05 0.05 54 1010.0
20260503001943 22 62 1.6 1.6 0.00 0.05 0.05 50 1010.1
20260503001440 22 28 3.2 3.2 0.00 0.05 0.05 51 1010.1
20260503000938 22 36 0.0 1.6 0.00 0.05 0.05 50 1009.9
20260503000434 22 23 1.6 6.4 0.00 0.05 0.05 52 1010.1
20260502235932 22 13 3.2 3.2 0.00 0.05 0.05 49 1010.3
20260502235429 22 24 1.6 6.4 0.00 0.05 0.05 50 1010.3
20260502234926 23 12 3.2 4.8 0.00 0.05 0.05 49 1010.2
20260502234422 22 19 1.6 3.2 0.00 0.05 0.05 51 1010.2
20260502233920 22 8 3.2 4.8 0.00 0.05 0.05 52 1010.3
20260502233415 22 350 3.2 3.2 0.00 0.05 0.05 50 1010.3
20260502232913 22 10 1.6 6.4 0.00 0.05 0.05 51 1010.2
20260502232408 23 102 1.6 3.2 0.00 0.05 0.05 49 1010.3
20260502231905 22 44 0.0 1.6 0.00 0.05 0.05 50 1010.6
20260502231403 22 18 1.6 4.8 0.00 0.05 0.05 49 1010.6
20260502230901 22 15 1.6 4.8 0.00 0.05 0.05 53 1010.6
20260502230359 22 4 0.0 4.8 0.00 0.05 0.05 52 1010.7
20260502225856 22 49 3.2 4.8 0.00 0.05 0.05 51 1010.8
20260502225352 22 337 6.4 12.9 0.00 0.05 0.05 51 1011.0
20260502224849 22 335 6.4 6.4 0.00 0.05 0.05 50 1010.9
20260502224345 22 35 1.6 3.2 0.00 0.05 0.05 49 1010.9
20260502223843 22 42 1.6 4.8 0.00 0.05 0.05 53 1011.2
20260502223341 22 11 4.8 6.4 0.00 0.05 0.05 48 1011.1
20260502222838 22 54 3.2 6.4 0.00 0.05 0.05 51 1011.3
20260502222336 22 17 4.8 6.4 0.00 0.05 0.05 49 1011.2
20260502221831 22 295 3.2 4.8 0.00 0.05 0.05 50 1011.4
20260502221328 21 18 1.6 4.8 0.00 0.05 0.05 51 1011.6
20260502220825 21 293 4.8 11.3 0.00 0.05 0.05 53 1011.6
20260502220321 20 14 1.6 6.4 0.00 0.05 0.05 54 1011.9
20260502215817 21 176 4.8 6.4 0.00 0.05 0.05 51 1011.8
20260502215314 20 318 4.8 4.8 0.00 0.05 0.05 58 1011.8
20260502214812 21 42 1.6 4.8 0.00 0.05 0.05 50 1012.0
20260502214308 21 42 0.0 9.7 0.00 0.05 0.05 53 1012.2
20260502213806 21 359 4.8 9.7 0.00 0.05 0.05 52 1012.2
20260502213302 21 22 3.2 11.3 0.00 0.05 0.05 54 1012.2
20260502212802 20 22 1.6 6.4 0.00 0.05 0.05 54 1012.2
20260502212259 20 1 3.2 6.4 0.00 0.05 0.05 52 1012.2
20260502211755 21 67 1.6 4.8 0.00 0.05 0.05 55 1012.3
20260502211252 20 26 1.6 6.4 0.00 0.05 0.05 52 1012.4
20260502210749 20 30 3.2 3.2 0.00 0.05 0.05 54 1012.3
20260502210247 20 29 3.2 6.4 0.00 0.05 0.05 56 1012.5
20260502205744 19 6 4.8 6.4 0.00 0.05 0.05 58 1012.4
20260502205240 20 157 3.2 4.8 0.00 0.05 0.05 55 1012.7
20260502204737 18 63 1.6 1.6 0.00 0.05 0.05 63 1012.8
20260502204234 18 53 4.8 6.4 0.00 0.05 0.05 56 1012.8
20260502203732 17 24 1.6 4.8 0.00 0.05 0.05 61 1012.8
20260502203230 17 326 4.8 9.7 0.00 0.05 0.05 63 1013.0
20260502202723 17 81 3.2 3.2 0.00 0.05 0.05 63 1013.1
20260502202222 17 42 0.0 3.2 0.00 0.05 0.05 60 1013.3
20260502201719 18 16 1.6 3.2 0.00 0.05 0.05 61 1013.5
20260502201216 18 12 0.0 6.4 0.00 0.05 0.05 58 1013.1
20260502200712 17 11 3.2 4.8 0.00 0.05 0.05 60 1013.3
20260502200208 17 345 4.8 6.4 0.00 0.05 0.05 60 1013.5
20260502195707 18 348 4.8 12.9 0.00 0.05 0.05 58 1013.4
20260502195203 17 22 1.6 11.3 0.00 0.05 0.05 61 1013.4
20260502194700 17 336 3.2 6.4 0.00 0.05 0.05 62 1013.6
20260502194156 17 309 4.8 11.3 0.00 0.05 0.05 65 1013.6
20260502193652 16 67 0.0 3.2 0.00 0.05 0.05 63 1013.7
20260502193150 16 354 3.2 9.7 0.00 0.05 0.05 65 1013.8
20260502192645 16 157 4.8 6.4 0.00 0.05 0.05 66 1013.6
20260502192143 16 4 6.4 11.3 0.00 0.05 0.05 64 1014.0
20260502191639 16 16 1.6 1.6 0.00 0.05 0.05 65 1013.8
20260502191137 15 344 4.8 6.4 0.00 0.05 0.05 67 1014.0
20260502190634 15 18 3.2 4.8 0.00 0.05 0.05 69 1013.9
20260502190127 15 73 1.6 4.8 0.00 0.05 0.05 66 1014.3
20260502185620 15 280 3.2 4.8 0.00 0.05 0.05 72 1014.1
20260502185117 15 13 3.2 6.4 0.00 0.05 0.05 70 1014.0
20260502184614 15 22 1.6 4.8 0.00 0.05 0.05 71 1013.9
20260502184109 15 44 1.6 3.2 0.00 0.05 0.05 71 1014.0
20260502183606 13 26 0.0 3.2 0.00 0.05 0.05 74 1014.0
20260502183102 13 308 6.4 6.4 0.00 0.05 0.05 72 1014.1
20260502182557 13 47 0.0 3.2 0.00 0.05 0.05 73 1014.0
20260502182053 14 308 6.4 9.7 0.00 0.05 0.05 72 1014.1